GEFSGL_500_meanwind_192.txt.gz
Wind_Speed
20 20 22 22 23 25 26 27 30 32 33 34 35 37 38 40 40 40 41 41 42 42 42 43 45 45 46 46 46 47 47 48 49 49 49 49 50 50 51 52 52 52 52
20 21 22 23 24 25 27 28 30 32 32 34 35 37 39 39 40 40 41 42 43 43 43 44 45 46 47 47 47 48 48 49 50 50 50 51 51 51 51 52 53 53 53
20 21 22 24 24 25 26 27 28 30 32 33 35 37 38 39 40 41 41 42 44 45 45 46 46 47 47 47 48 49 49 49 50 51 51 51 51 51 51 52 53 53 54
22 22 23 23 24 25 26 26 28 29 30 32 34 36 38 39 40 41 41 42 44 45 46 46 46 47 47 47 48 49 50 50 51 52 52 51 52 51 52 53 53 53 54
24 24 24 24 26 27 27 28 28 29 30 32 33 35 37 38 40 40 42 43 44 45 45 46 46 47 47 48 48 49 50 51 52 52 52 52 52 52 53 53 52 53 53
27 27 27 27 28 29 27 28 28 28 29 31 32 34 36 37 39 40 42 43 44 44 45 45 46 46 47 48 49 49 50 51 52 52 53 53 53 53 54 54 53 53 53
27 28 27 28 28 28 28 28 29 29 30 32 33 33 35 36 38 40 41 42 42 43 44 45 46 47 47 47 48 49 49 50 51 51 51 51 52 53 53 54 54 54 53
27 27 27 27 27 27 28 29 30 31 31 31 32 33 34 36 38 39 39 40 41 42 43 44 45 46 46 47 48 48 49 49 50 50 50 50 50 51 51 52 52 52 52
28 27 27 28 29 29 29 30 30 30 31 32 33 34 35 36 37 38 38 40 41 41 43 44 44 44 45 46 47 48 48 48 49 49 49 50 50 50 50 50 51 51 51
28 28 29 29 30 30 31 31 31 32 33 34 35 36 36 37 38 38 39 40 41 42 43 43 44 44 45 46 47 47 48 48 49 49 49 49 49 49 49 50 51 51 52
29 29 30 31 31 31 32 33 34 34 35 35 36 37 38 39 39 40 40 41 41 42 43 44 44 44 45 46 46 46 47 48 48 48 48 48 48 48 49 50 50 50 50
31 31 32 33 33 34 34 35 35 36 36 36 36 37 38 39 39 39 40 41 41 42 43 44 44 45 45 45 46 46 46 46 47 47 46 47 47 48 48 49 49 49 49
34 34 34 34 35 36 36 36 36 37 38 38 38 38 39 39 40 41 41 41 42 43 43 44 44 44 45 45 45 45 45 45 45 45 45 45 46 47 48 48 48 48 47
36 36 36 36 36 36 37 37 38 39 39 40 40 40 39 40 40 41 41 42 42 43 43 44 44 44 44 44 44 44 44 43 43 44 44 44 44 45 45 45 45 44 44
37 38 38 38 38 38 39 39 40 40 41 41 41 41 40 40 41 41 41 42 42 43 43 43 42 42 42 42 42 42 43 42 42 42 43 43 43 43 43 43 42 41 41
39 40 40 40 40 40 40 41 42 42 42 42 42 41 41 41 41 42 42 42 42 42 42 42 41 41 41 41 41 41 41 41 41 41 42 42 42 41 41 40 39 39 39
40 40 41 41 41 41 42 42 42 42 42 42 42 42 42 42 42 42 42 42 42 41 40 40 40 39 39 39 39 39 39 39 40 40 40 40 40 39 39 38 38 37 37
41 41 41 41 41 42 42 42 42 42 41 41 41 42 42 41 41 40 40 40 40 40 39 39 38 38 38 38 38 38 37 38 38 39 38 38 38 37 37 36 36 35 35
41 41 41 40 40 40 41 41 41 40 40 40 40 40 40 40 40 39 39 39 38 37 37 37 36 35 35 35 35 35 35 35 35 35 35 34 34 34 33 33 33 34 33
40 40 39 39 40 40 40 40 40 40 40 40 40 40 39 39 39 38 38 38 37 36 36 35 34 33 33 33 33 33 33 33 33 33 32 32 32 31 31 31 31 31 31
38 38 38 39 39 39 39 39 39 39 39 40 40 39 38 38 37 37 37 36 35 34 34 34 33 33 33 32 32 32 32 32 31 31 31 30 31 30 30 30 30 29 29
37 37 38 38 38 38 38 39 39 40 40 40 39 38 37 36 36 35 35 34 34 34 34 33 33 33 33 32 32 32 31 30 30 30 30 30 30 30 29 29 28 27 27
37 37 37 38 38 39 39 39 39 40 39 38 37 36 35 35 34 34 34 34 33 33 33 32 32 32 31 31 30 30 29 28 28 28 28 28 29 28 28 27 26 26 26
37 38 38 38 39 39 39 39 39 38 37 36 35 34 34 33 33 33 33 33 32 32 32 32 31 30 29 29 29 28 28 28 28 27 27 27 27 26 26 25 25 24 25
38 38 38 38 38 39 38 38 37 36 35 34 33 33 32 32 32 31 31 31 31 31 31 30 29 28 28 28 28 27 27 27 27 26 25 25 24 24 23 23 23 22 23
37 38 38 38 38 38 37 37 36 35 34 33 32 32 31 31 31 31 31 30 30 29 28 27 26 26 26 26 26 25 25 24 24 24 23 23 22 21 21 21 21 21 22

GEFSGL_500_meanwind_198.txt.gz
Wind_Speed
23 23 23 23 23 23 25 26 27 27 28 29 30 32 34 36 36 39 39 41 42 42 42 43 44 44 45 45 46 47 49 49 49 50 51 51 52 52 52 52 53 54 54
23 23 24 24 23 23 25 26 27 28 28 28 29 31 34 36 37 39 40 40 42 43 43 44 43 44 44 45 46 47 48 49 49 50 51 51 51 52 52 53 54 54 54
24 24 24 24 24 24 25 26 27 27 28 29 30 31 33 35 38 40 41 40 41 42 44 44 44 45 45 45 46 47 47 48 49 50 50 49 50 50 51 52 52 53 54
24 24 23 24 25 25 25 26 27 27 28 29 30 31 32 33 34 37 39 39 40 41 42 43 45 46 47 47 47 48 48 48 49 50 50 50 50 50 50 50 50 52 54
24 24 23 23 24 25 26 26 27 28 28 29 30 31 32 33 34 35 37 39 40 40 42 43 44 45 45 47 48 48 48 48 49 49 49 49 49 49 50 51 51 53 54
24 24 24 24 24 24 25 26 27 27 28 29 30 30 31 33 34 36 37 38 40 40 41 42 42 43 44 46 47 48 48 48 49 49 49 49 49 50 51 52 52 53 54
25 25 25 25 26 25 25 25 26 26 27 29 30 31 32 33 34 35 35 37 39 40 41 42 43 43 44 45 46 47 48 49 50 50 50 50 50 51 53 53 53 53 53
26 26 26 27 28 28 27 27 26 26 28 29 30 31 32 32 33 34 35 36 37 38 40 40 41 42 44 45 45 46 47 48 49 49 50 50 51 52 53 52 52 52 52
28 28 29 29 30 30 29 29 29 29 29 29 31 32 32 33 34 34 35 35 37 38 39 40 42 43 43 45 45 45 46 47 47 48 49 50 50 51 52 53 52 52 51
30 30 31 31 30 31 30 30 30 31 31 31 32 33 33 33 34 35 35 37 38 39 40 41 42 42 43 44 45 45 46 46 46 47 48 49 50 51 52 52 51 50 50
32 33 33 33 32 32 32 31 32 33 33 34 34 34 35 35 35 36 37 38 39 39 40 41 42 42 43 44 45 45 45 46 46 47 47 48 49 50 50 50 50 49 49
33 33 33 33 33 33 33 33 34 34 34 35 35 35 35 36 37 37 38 39 40 40 40 40 41 43 44 44 44 44 45 46 46 46 47 47 48 48 48 48 48 49 48
33 33 33 33 33 33 34 34 35 35 36 36 36 36 36 36 37 38 38 39 40 40 40 41 41 42 43 44 44 44 44 45 45 45 46 46 46 46 47 47 47 47 47
34 34 33 34 34 34 34 35 35 36 36 37 38 37 36 36 37 38 39 39 40 40 41 41 41 42 42 43 43 43 43 44 44 44 44 44 45 45 45 45 45 45 45
34 34 34 34 34 34 35 35 36 37 38 38 38 37 37 37 37 37 38 39 39 39 39 39 39 40 40 41 42 42 42 42 42 42 42 43 43 43 43 44 44 44 44
35 34 34 34 34 35 35 36 37 38 38 38 37 37 36 36 36 36 36 37 37 38 38 38 38 38 38 39 40 40 40 40 40 40 40 40 41 41 42 42 42 42 41
35 35 34 34 35 35 36 37 37 37 37 36 35 35 35 35 35 36 36 36 36 36 36 36 36 36 36 37 37 37 37 37 37 37 37 38 39 39 39 39 39 38 38
35 35 35 35 36 36 36 36 35 35 34 34 34 35 35 35 35 36 36 36 36 36 35 35 35 35 35 35 35 35 34 35 35 35 35 36 36 36 36 36 35 35 34
34 35 36 36 36 36 36 35 35 34 34 34 34 35 35 36 36 36 36 35 35 35 34 34 34 34 34 34 33 33 33 33 33 33 33 33 33 33 32 32 32 31 32
35 35 35 35 35 35 35 35 35 35 35 34 35 35 35 36 37 36 36 35 34 34 34 34 34 34 33 33 33 33 33 32 32 31 31 31 31 31 30 29 29 29 30
33 33 33 33 33 33 34 34 34 34 35 35 35 36 36 37 37 36 35 34 34 34 34 34 34 34 33 34 33 33 32 32 31 31 31 30 30 29 29 28 28 28 28
32 32 32 32 33 33 33 33 33 34 34 35 36 36 37 37 36 35 34 34 34 33 33 33 33 33 33 33 32 32 31 31 30 29 29 29 29 28 28 28 27 27 27
32 32 32 32 32 32 32 32 33 33 34 35 35 36 36 36 35 34 34 33 33 33 33 32 32 32 32 32 31 31 30 30 29 29 28 28 27 27 27 27 27 26 26
32 32 32 32 32 32 32 33 33 33 34 34 34 35 34 34 34 33 33 33 32 32 32 32 31 31 30 30 29 28 28 28 27 27 27 26 25 25 25 25 25 24 24
33 33 33 32 32 32 33 33 33 33 34 33 33 33 32 32 31 31 31 30 30 31 30 29 29 28 28 27 27 26 25 25 25 25 25 25 24 24 23 23 22 22 21
33 33 33 33 33 33 32 32 32 32 32 32 32 31 31 30 30 30 29 29 29 28 27 27 26 25 25 25 24 24 23 23 23 23 23 22 22 21 21 20 20 20 20

GEFSGL_500_meanwind_204.txt.gz
Wind_Speed
27 27 26 26 26 27 28 29 29 29 29 29 31 31 33 34 35 36 37 38 39 40 41 42 42 42 43 44 43 44 46 46 46 46 47 47 47 48 49 50 50 50 51
28 27 27 27 27 28 28 29 29 30 30 31 31 31 32 34 34 35 37 38 38 39 41 42 42 42 43 43 43 44 45 46 47 47 48 49 49 50 51 52 52 53 54
29 29 28 28 28 29 29 29 30 30 30 31 31 30 30 31 32 34 35 36 37 39 40 41 42 42 42 42 43 44 45 46 47 48 49 50 51 51 52 53 54 55 56
30 30 30 29 29 29 29 29 30 30 29 30 31 30 30 30 31 32 33 35 36 38 38 39 41 42 41 42 43 44 44 46 47 49 49 50 50 51 52 53 54 55 56
30 30 30 30 30 29 29 28 28 28 29 29 30 30 30 29 29 30 32 33 34 36 38 39 40 42 42 43 44 45 46 46 48 48 49 49 50 51 51 52 53 54 54
31 31 30 30 29 29 29 29 28 28 28 28 28 29 29 29 29 29 30 32 34 35 36 38 39 40 41 43 44 46 46 47 48 48 49 49 50 50 51 52 53 53 53
31 30 30 30 30 30 29 29 28 29 29 29 29 29 30 30 30 30 31 32 34 35 36 38 39 41 41 42 43 45 46 47 48 48 48 49 49 50 50 50 51 51 52
31 31 31 31 31 31 31 30 30 29 29 29 30 30 30 30 31 32 32 33 34 35 37 37 39 40 41 42 43 44 44 45 45 47 47 47 48 49 50 50 51 51 51
32 32 32 32 32 32 32 32 31 31 31 31 31 31 30 31 31 32 33 34 35 36 37 38 39 40 41 42 42 42 42 43 44 45 46 46 47 48 49 50 49 49 49
32 32 33 33 34 34 34 33 33 33 32 32 32 31 31 32 33 33 34 35 35 36 37 39 40 40 41 41 42 42 42 42 43 43 44 44 45 46 47 48 48 47 48
33 34 34 34 34 34 34 33 33 32 32 32 32 32 32 33 33 35 35 35 36 37 37 38 38 39 40 40 41 42 41 41 42 42 42 43 44 45 45 46 46 46 46
34 34 35 35 34 34 34 33 32 32 32 31 31 32 32 33 35 36 37 37 37 37 37 37 38 38 39 40 40 41 41 41 41 42 42 43 43 44 44 44 44 45 44
35 35 35 35 34 34 34 33 32 32 32 32 33 33 34 35 36 37 38 38 38 38 38 38 38 38 39 39 40 40 41 41 41 41 42 43 43 43 43 43 43 43 43
37 36 36 35 35 35 34 33 33 33 33 34 34 34 35 35 36 36 37 37 37 37 37 37 37 37 38 38 38 39 40 40 40 41 41 42 42 42 42 42 42 41 42
37 36 35 34 34 34 33 33 33 33 33 33 34 34 34 34 35 36 35 35 35 35 36 37 36 36 37 37 38 38 38 38 39 40 40 40 40 41 41 40 40 40 40
36 36 35 34 34 34 33 33 33 33 33 33 33 33 32 33 34 33 33 33 34 35 35 35 36 36 36 37 38 37 36 36 37 38 38 39 39 38 39 39 38 38 38
35 35 35 34 34 34 34 33 33 32 33 32 32 32 32 33 33 33 33 33 34 34 34 35 35 36 36 36 36 35 35 35 35 35 36 37 37 37 37 36 36 35 35
34 34 34 34 34 33 33 32 32 32 32 32 32 32 32 33 33 33 33 33 34 34 34 35 35 35 35 35 35 34 34 34 34 34 35 34 34 35 34 34 33 33 33
32 33 33 33 33 33 32 32 32 32 32 32 32 32 33 33 33 33 33 34 34 34 34 35 34 34 34 34 33 33 33 33 33 34 34 34 33 33 33 32 31 31 30
31 31 32 32 33 32 32 32 32 32 32 32 32 32 33 33 34 34 34 35 35 35 35 34 34 33 33 32 32 32 32 33 33 34 34 34 33 32 31 30 29 29 28
31 32 32 32 32 32 32 32 32 31 31 31 32 32 32 33 33 33 34 35 35 35 34 33 33 33 32 32 32 32 32 32 33 33 33 32 31 30 29 28 27 27 26
32 33 33 32 32 32 32 32 31 31 31 31 31 31 31 31 32 32 33 33 33 33 33 33 33 32 32 31 31 31 31 31 31 31 30 29 28 28 27 26 26 26 26
31 32 31 31 31 31 31 31 30 30 30 30 30 30 30 31 31 32 32 32 31 31 31 32 32 31 31 30 30 30 30 30 29 29 28 27 26 25 25 25 25 25 25
30 30 30 30 30 30 30 29 29 29 29 30 30 30 30 30 31 31 31 31 31 31 31 30 30 29 29 29 29 28 28 28 27 26 26 25 25 24 24 24 24 24 23
29 29 29 29 29 29 29 29 29 29 29 29 29 30 30 30 30 30 30 29 29 29 29 29 28 28 28 28 28 27 27 26 26 25 25 24 24 23 23 23 23 22 22
28 28 28 28 28 27 27 27 28 28 28 29 29 29 30 30 31 30 29 29 29 28 28 27 27 27 27 27 27 26 25 25 24 23 23 22 22 22 22 22 21 21 20

GEFSGL_500_meanwind_210.txt.gz
Wind_Speed
30 29 29 30 30 29 29 29 29 29 29 29 30 31 31 31 32 33 34 35 37 38 39 40 41 41 41 42 44 44 44 46 47 47 48 49 49 49 50 50 51 51 52
31 30 30 30 30 30 30 30 30 30 29 30 31 31 31 32 32 33 34 36 37 38 38 39 40 42 41 42 44 44 45 45 47 48 49 50 49 50 50 51 52 52 53
32 32 31 31 31 31 31 31 31 30 30 31 31 31 31 32 32 32 33 34 35 35 36 37 39 41 41 42 42 43 44 45 47 48 48 49 49 50 51 51 52 53 54
33 32 32 32 32 32 32 32 32 31 32 32 31 31 31 31 32 31 32 33 34 35 36 37 39 40 41 41 41 42 43 44 45 46 47 47 48 49 50 51 52 53 54
33 33 33 33 33 32 32 33 33 33 33 32 31 31 31 31 31 32 33 34 34 35 36 36 37 38 39 39 40 41 42 43 44 45 46 47 48 48 49 50 51 53 53
34 33 33 33 33 33 33 33 33 33 33 32 31 31 31 32 32 33 34 34 34 34 34 34 35 36 38 39 40 41 42 43 43 44 45 46 47 48 49 50 51 52 52
35 34 34 34 34 34 34 34 34 33 34 34 33 33 32 32 33 33 33 34 34 33 33 33 34 35 37 39 40 41 42 43 44 44 45 46 47 48 49 50 51 51 50
35 35 35 36 36 35 34 34 34 34 35 35 34 34 33 33 33 33 33 34 34 34 33 34 34 35 36 38 40 40 40 41 43 44 44 45 46 46 48 48 49 49 48
35 36 36 36 36 35 35 35 35 35 35 35 35 34 34 34 34 34 33 33 33 34 34 35 36 36 36 37 39 40 41 42 43 45 45 45 45 45 46 46 47 48 47
36 36 36 36 35 36 36 35 35 36 36 35 35 35 35 35 35 35 34 34 33 33 34 35 35 36 36 37 39 40 41 42 44 45 45 45 45 45 46 46 47 47 47
36 36 36 35 35 36 36 36 36 36 36 36 36 36 36 36 36 36 35 34 34 34 34 35 36 36 37 38 39 40 41 42 42 43 43 43 44 44 45 46 46 46 45
37 37 37 36 36 36 36 36 36 36 36 36 37 37 36 35 35 35 34 34 35 35 35 35 36 36 36 37 38 39 40 40 40 41 41 42 42 43 43 43 44 44 44
38 37 37 37 37 36 36 36 35 35 36 36 35 34 34 35 35 35 34 34 34 34 34 35 35 36 36 36 37 38 39 39 40 40 40 41 41 41 41 41 42 43 43
38 37 37 36 36 35 35 35 34 34 34 34 34 34 34 34 33 33 33 32 32 33 33 33 34 34 35 36 36 37 38 38 38 39 39 40 40 39 39 39 40 40 40
38 38 37 36 35 35 34 34 34 33 33 33 34 33 33 32 31 31 31 31 32 32 32 32 33 33 34 35 36 37 37 37 37 37 38 38 38 38 39 38 38 39 38
36 36 35 35 34 34 34 34 34 34 33 33 33 33 32 32 31 31 31 31 31 32 32 32 33 33 34 35 35 35 36 36 36 36 37 37 37 37 37 37 38 38 37
34 34 34 34 33 33 33 33 34 34 34 33 33 33 32 32 31 31 31 31 31 31 31 32 33 33 34 35 35 35 35 35 35 35 36 36 36 36 36 36 36 37 36
32 32 33 32 32 33 33 33 33 33 34 34 34 34 33 32 32 32 31 31 31 32 32 32 33 34 35 35 35 35 35 34 35 35 36 35 35 35 35 35 36 36 35
31 32 31 31 32 32 32 33 33 34 34 34 34 34 33 32 31 31 31 31 31 32 32 33 34 35 35 35 34 34 34 34 34 34 34 34 34 34 34 34 33 34 34
30 30 31 31 31 31 32 32 33 33 33 33 33 32 32 31 31 31 31 32 32 32 32 33 34 34 34 34 34 34 34 33 33 33 34 33 33 32 32 32 32 31 31
27 28 29 30 30 30 31 31 31 31 31 31 31 31 31 31 31 31 31 31 32 32 32 33 33 33 33 34 33 33 33 33 33 33 32 31 31 31 31 30 30 30 30
25 26 27 27 27 28 29 29 29 29 30 30 30 31 31 31 30 30 30 30 30 31 32 32 32 32 32 32 32 31 31 31 31 31 31 30 30 30 30 29 28 28 27
25 25 26 26 27 27 28 28 28 29 29 29 29 30 30 30 29 29 29 29 30 31 31 31 31 31 31 30 30 30 31 31 31 30 30 29 29 29 28 28 27 26 25
24 25 26 26 27 26 27 27 28 28 29 29 29 29 29 29 29 29 29 29 29 29 30 30 30 30 29 29 29 30 29 29 29 28 27 27 27 27 27 26 25 25 24
24 24 25 26 26 26 26 27 27 28 28 28 28 28 28 28 28 29 29 29 29 29 29 29 29 28 28 28 28 28 28 27 27 26 26 26 26 26 25 24 24 23 23
24 25 25 25 25 26 26 26 27 27 27 27 27 27 27 27 27 27 27 27 28 28 28 28 27 27 26 26 26 26 26 26 25 25 25 25 25 24 24 23 23 22 22

GEFSGL_500_meanwind_216.txt.gz
Wind_Speed
35 34 34 34 35 35 35 35 35 34 34 34 34 34 34 34 34 34 34 35 35 34 34 35 35 35 36 37 38 39 40 40 41 41 42 43 44 45 46 46 47 49 50
36 36 36 36 36 36 36 36 35 35 35 34 34 34 34 35 34 34 35 35 34 35 36 36 36 36 36 37 38 38 38 39 40 40 41 42 43 45 46 47 48 49 50
38 37 37 37 37 37 37 37 36 36 36 35 35 34 35 36 36 35 35 35 35 35 36 36 36 36 36 37 37 37 37 39 40 40 40 41 43 44 46 47 49 50 50
38 38 38 38 38 38 38 37 36 36 36 36 36 35 36 37 37 37 36 35 35 35 35 36 36 36 37 37 37 38 38 39 39 40 40 41 42 44 46 47 48 49 50
39 39 39 39 39 39 38 38 37 37 37 37 37 36 36 36 37 37 37 36 35 35 35 35 36 36 37 37 37 38 39 39 39 40 41 42 43 43 45 46 47 48 48
39 39 39 39 39 40 39 39 38 38 38 38 38 37 37 37 37 37 37 37 36 36 36 36 36 36 37 38 38 39 40 40 40 40 42 43 43 44 44 45 46 47 48
40 40 40 39 39 39 40 39 39 39 39 39 39 39 39 38 38 37 36 37 37 37 37 37 37 38 38 38 39 40 40 41 41 42 42 43 43 43 44 45 46 47 48
40 40 40 40 40 39 40 40 40 40 40 39 40 40 39 39 39 38 38 38 38 38 38 37 38 38 38 39 39 39 40 41 41 42 41 42 42 43 44 45 46 47 48
41 41 41 41 41 40 40 40 40 39 39 40 40 40 39 39 39 39 39 39 39 39 38 38 38 38 39 40 39 39 40 41 42 42 42 42 42 42 42 43 44 46 47
41 41 41 41 41 40 40 39 39 40 39 39 40 39 39 39 40 39 39 39 39 39 39 39 39 39 39 40 39 39 39 39 40 41 41 42 42 42 42 43 44 44 45
43 42 41 41 41 41 39 39 40 40 40 40 39 39 39 39 39 39 38 38 38 38 39 39 39 39 39 39 39 38 38 38 39 38 39 39 41 42 43 44 44 44 45
43 42 42 41 41 40 40 40 40 40 40 39 39 39 39 38 38 38 38 38 37 38 38 38 38 38 38 38 38 37 37 38 37 37 38 39 41 42 42 43 43 43 43
42 41 41 41 40 41 41 40 40 39 39 39 39 39 38 38 38 38 37 37 37 37 37 37 38 37 37 37 37 37 37 37 36 37 37 39 40 41 42 43 43 43 42
39 39 39 39 39 39 39 39 38 38 38 38 38 38 38 37 36 36 36 36 36 36 36 36 36 36 36 36 36 36 36 36 36 36 37 38 39 40 41 41 41 41 40
37 37 36 36 36 35 36 36 36 37 37 37 37 37 37 36 36 36 36 35 35 35 35 36 36 35 35 35 35 35 36 35 35 36 37 37 37 38 39 39 38 38 38
36 35 34 34 34 34 34 34 34 34 35 35 35 35 35 35 35 35 34 34 34 34 34 34 34 34 34 34 34 34 34 34 35 36 37 37 36 37 36 35 35 36 36
35 35 35 35 34 34 34 34 33 33 34 34 34 34 34 34 34 34 33 33 33 33 33 33 33 33 33 33 33 33 33 34 35 36 36 36 36 35 34 34 34 34 34
35 35 34 34 34 34 34 33 32 32 32 32 32 32 32 33 33 33 33 33 33 33 33 32 32 32 32 33 33 33 34 34 35 35 34 34 34 33 32 32 32 32 33
33 33 33 33 33 33 33 32 31 31 30 31 31 31 31 32 32 33 33 33 32 33 33 32 32 32 32 32 33 34 34 35 34 33 33 33 33 32 31 31 31 32 33
31 31 31 31 31 31 32 32 31 31 30 31 31 31 31 32 32 32 33 33 32 32 32 32 32 32 32 32 33 34 34 33 33 32 32 32 31 31 31 31 32 32 32
29 29 29 29 29 29 30 31 31 31 31 31 31 31 31 31 32 32 32 32 32 31 31 31 31 31 31 32 32 32 32 32 32 31 31 31 31 31 32 32 32 32 32
27 27 28 28 28 28 29 30 30 31 32 32 31 31 31 31 31 31 31 30 30 31 30 30 30 30 30 30 30 30 30 30 30 30 29 29 30 30 31 32 32 32 31
25 25 26 27 27 27 28 28 29 30 30 30 31 30 30 30 30 30 29 29 29 29 29 28 28 28 29 29 29 29 28 28 28 28 28 29 29 30 30 30 30 30 30
23 24 24 25 25 25 25 26 26 27 27 27 27 28 28 28 28 28 28 28 27 27 27 27 27 27 28 28 28 28 28 27 27 27 27 28 28 28 28 29 29 28 28
22 23 23 24 24 24 24 24 24 24 25 25 25 25 25 25 25 25 25 25 25 25 26 26 26 27 27 27 27 27 27 27 27 27 27 27 27 27 27 27 27 27 26
21 22 22 23 23 23 23 22 23 23 23 24 24 24 23 23 23 23 23 24 24 25 25 25 26 26 26 26 26 27 27 27 27 26 26 26 26 26 26 25 25 25 25

GEFSGL_500_meanwind_222.txt.gz
Wind_Speed
40 40 40 39 39 39 39 39 39 40 40 40 40 39 39 38 38 38 38 38 38 37 37 37 38 38 38 39 38 38 39 39 39 39 40 41 42 42 41 41 41 42 44
40 40 40 40 40 39 39 39 39 39 40 40 40 40 39 39 39 38 38 39 39 39 39 39 38 38 38 38 38 38 38 39 39 40 40 40 41 43 43 43 42 43 43
40 40 40 40 40 40 40 40 39 39 39 39 39 39 39 39 39 39 39 40 40 40 40 39 38 37 37 37 37 37 37 38 38 39 39 40 40 41 42 42 42 42 43
41 41 41 41 41 41 41 40 40 40 39 39 38 38 38 38 38 38 39 39 39 40 39 38 37 37 37 37 38 38 37 37 38 39 39 39 40 40 41 41 41 42 43
41 41 42 42 42 41 41 41 41 40 39 39 38 38 37 38 38 37 37 38 38 38 39 38 37 37 38 38 38 38 38 38 38 38 39 39 39 40 41 42 42 43 44
41 41 42 42 42 42 42 42 41 40 40 39 38 38 37 37 37 37 38 38 38 38 39 39 39 38 38 37 37 37 38 38 39 39 39 38 39 41 42 42 43 43 44
42 42 42 42 43 43 42 42 41 41 40 40 39 38 37 36 37 37 37 37 38 39 39 39 39 39 38 38 38 38 38 38 39 40 40 40 41 42 42 42 43 45 45
42 43 43 43 43 43 43 42 41 41 40 40 39 38 37 37 37 37 37 38 39 39 39 39 39 39 39 38 38 38 39 39 39 40 41 41 41 41 41 42 42 43 44
43 43 43 43 43 43 43 42 41 41 41 40 39 39 39 39 39 39 39 39 39 39 39 39 39 38 38 39 39 39 39 39 38 39 39 39 39 40 40 41 41 41 41
42 42 43 43 43 43 43 43 43 42 41 40 40 40 40 40 40 39 39 39 39 39 39 39 39 39 39 39 39 39 38 38 38 38 37 37 38 39 39 40 41 41 41
41 42 42 42 42 42 42 43 43 43 42 41 41 41 41 40 39 39 39 39 38 38 38 38 39 39 39 39 39 38 38 38 37 37 37 38 38 38 39 40 41 42 42
40 40 41 41 40 41 41 41 42 42 42 41 41 40 40 39 39 39 38 38 37 37 37 38 38 39 40 39 39 39 38 38 38 38 38 38 38 39 40 40 41 42 42
38 38 39 39 39 39 39 39 40 41 41 40 40 39 39 38 38 38 37 37 37 37 37 38 38 38 38 38 38 38 38 38 38 39 39 39 39 40 41 41 41 41 41
38 38 38 39 39 39 39 39 39 39 39 39 38 38 38 38 38 37 37 37 37 38 38 38 38 38 38 38 38 38 38 38 39 39 38 38 39 39 40 40 40 40 40
37 37 37 38 39 39 38 38 38 38 38 38 37 37 37 37 37 37 37 38 38 38 38 38 37 37 37 38 38 38 38 38 38 38 38 38 38 38 38 39 39 39 38
36 36 37 37 37 38 37 37 37 37 36 36 36 36 36 36 37 37 37 37 37 37 37 37 36 36 36 37 37 37 37 37 36 36 37 36 36 37 37 37 37 38 37
35 35 36 36 36 36 35 34 34 34 34 34 34 35 35 35 35 35 35 35 35 36 35 35 35 35 35 35 35 36 36 35 35 36 36 36 36 36 36 36 36 36 36
34 34 34 34 34 34 34 33 33 33 33 33 33 34 34 34 34 34 34 34 34 34 33 33 33 33 33 33 34 34 34 34 34 35 35 36 36 35 35 35 34 34 34
33 33 33 32 32 32 33 33 33 33 33 33 33 33 33 32 33 33 33 33 33 33 32 32 32 32 32 32 32 32 33 33 33 34 34 34 34 34 34 34 33 32 32
31 31 32 32 32 32 32 32 33 33 33 32 32 32 32 31 31 31 31 31 31 32 32 32 31 31 31 31 31 31 31 32 32 32 32 33 32 32 32 32 31 31 31
28 29 30 30 30 31 32 32 32 32 32 32 32 32 31 31 31 30 29 29 29 30 30 31 31 30 31 31 31 31 30 30 30 30 30 30 30 30 30 29 29 29 30
25 26 27 27 28 29 30 30 30 30 31 30 30 29 29 29 29 29 29 29 29 28 29 29 30 30 30 30 29 28 28 28 28 28 28 28 28 28 28 28 27 28 28
23 24 25 26 26 27 27 28 28 28 28 29 29 28 28 29 29 29 29 30 30 29 29 29 29 29 28 28 27 27 27 26 27 27 27 27 26 26 26 26 26 27 28
21 22 23 24 25 25 26 26 26 27 27 27 27 27 27 27 28 28 29 29 29 29 28 27 27 26 26 26 26 27 27 26 26 26 26 26 26 26 26 26 26 26 27
20 20 21 21 23 23 24 24 24 24 25 25 26 25 25 25 26 26 26 26 26 26 25 25 25 25 25 26 26 26 26 26 25 25 25 25 25 25 25 26 26 26 27
19 20 20 20 21 21 22 22 22 22 23 23 23 23 23 23 23 23 23 23 23 23 23 24 25 25 26 26 26 26 25 26 26 25 25 25 25 25 25 26 26 26 27

GEFSGL_500_meanwind_228.txt.gz
Wind_Speed
41 42 42 42 43 43 43 42 43 43 43 42 42 41 42 42 42 42 41 41 41 41 40 40 40 40 40 40 40 40 39 39 39 39 39 38 39 39 39 40 40 41 41
42 42 42 43 43 43 43 44 43 43 43 43 43 43 43 43 42 42 42 42 42 41 41 41 40 39 39 39 39 39 39 39 40 40 38 38 39 40 40 41 41 40 41
43 43 42 43 44 44 44 44 44 43 43 43 43 44 44 43 43 43 43 42 42 41 41 40 40 40 39 39 39 40 40 40 40 40 39 39 38 39 40 40 40 40 40
44 43 43 44 44 45 45 44 44 44 44 44 43 44 44 43 43 43 43 43 42 41 40 40 39 39 39 40 40 40 40 39 39 40 39 39 39 39 39 39 39 39 39
44 44 44 44 45 46 45 44 44 44 44 44 44 44 43 43 42 42 42 41 41 40 39 39 39 39 39 40 39 39 39 39 39 39 39 39 38 38 38 38 38 38 39
44 45 45 45 45 45 45 45 45 44 44 44 44 44 43 43 42 41 41 40 39 39 39 39 39 39 39 39 38 38 38 38 39 39 39 38 38 38 38 39 39 39 39
44 44 45 45 45 45 45 45 45 45 45 44 44 44 43 42 41 41 39 39 38 38 38 37 38 38 38 37 38 38 38 38 38 38 39 39 38 38 39 40 40 40 40
41 42 42 43 44 44 44 44 45 45 45 45 45 44 43 42 41 40 39 39 38 38 38 38 38 38 38 38 38 38 38 38 38 38 38 38 39 39 40 40 41 41 41
39 40 40 41 41 42 42 42 43 44 44 45 45 44 44 43 42 40 40 40 40 39 39 39 39 40 39 39 39 38 38 38 38 38 39 39 40 40 41 41 42 42 41
38 38 38 39 40 41 41 42 43 43 43 43 44 44 44 43 42 41 41 41 40 39 39 38 39 39 39 39 39 39 39 38 38 39 39 40 40 41 42 42 42 42 41
36 37 37 38 39 40 41 41 41 41 41 42 42 43 43 42 41 41 41 41 40 39 39 39 38 39 39 39 39 39 38 38 39 39 40 40 40 41 41 42 42 42 42
36 36 36 37 38 39 40 40 40 40 40 40 41 41 41 42 41 41 41 40 40 40 40 39 39 38 38 39 39 39 39 39 39 40 40 40 41 41 41 41 41 41 41
36 36 36 37 37 38 39 39 39 39 38 38 39 40 40 41 41 41 41 41 41 41 40 39 39 39 38 38 38 38 39 39 40 40 41 41 41 41 41 41 41 41 41
36 36 36 36 36 36 37 38 38 38 38 38 38 39 39 40 40 40 40 40 40 40 39 38 38 38 38 38 38 38 38 38 39 39 40 40 40 41 41 41 41 40 41
35 35 35 35 35 35 36 36 36 36 36 36 36 37 38 39 39 39 39 39 39 39 39 39 38 38 38 37 37 38 38 38 38 38 39 39 40 40 40 40 40 40 39
34 34 35 34 33 33 33 34 35 35 35 35 35 36 37 38 38 38 38 38 38 38 38 38 37 37 36 36 37 37 37 37 37 38 38 38 38 39 39 39 39 39 38
34 33 33 34 33 32 33 33 34 35 35 35 34 35 35 35 36 37 37 36 37 37 36 36 37 36 36 36 37 37 37 37 37 37 37 37 37 37 37 37 37 37 37
33 33 33 33 34 34 34 33 34 34 34 34 34 34 34 34 35 36 35 35 35 36 36 35 35 36 36 36 36 36 35 36 36 36 36 36 36 35 35 36 36 36 36
33 33 33 33 33 33 33 33 33 33 34 34 34 33 33 33 33 34 34 34 34 35 35 35 35 35 35 35 35 35 34 34 34 34 34 34 34 34 34 34 34 34 33
31 32 32 33 32 32 32 32 32 32 32 33 33 32 32 32 33 33 33 33 33 33 33 33 33 33 33 34 34 33 33 33 33 32 32 32 32 33 33 33 32 32 31
29 30 31 31 31 31 31 31 32 31 31 31 31 31 31 31 31 31 31 31 31 31 31 32 32 32 31 31 32 32 32 32 32 31 31 32 32 32 32 31 31 30 30
27 27 28 29 29 29 29 29 29 30 29 30 30 30 30 29 29 30 30 30 30 30 30 30 30 30 30 30 30 30 30 30 31 31 31 31 31 31 31 30 30 29 28
26 26 26 26 27 27 27 27 27 27 28 28 28 28 28 28 29 29 29 30 30 30 30 29 30 29 29 29 29 29 29 29 29 29 29 29 29 29 29 29 28 28 27
23 24 24 24 24 25 25 26 26 26 26 26 26 27 27 28 28 28 28 29 29 30 30 29 29 29 29 28 29 28 28 28 28 27 28 28 27 27 27 27 27 26 26
20 21 21 21 22 23 24 24 25 25 25 25 25 26 26 26 26 27 27 28 28 28 29 29 29 28 28 28 27 27 27 27 27 26 26 26 26 26 25 25 25 25 25
18 18 19 19 20 20 22 23 23 24 24 25 25 24 24 24 24 24 24 25 25 26 26 26 27 27 27 27 26 25 25 25 25 25 25 25 25 25 24 24 24 24 25

GEFSGL_500_meanwind_234.txt.gz
Wind_Speed
42 42 42 43 43 44 44 45 45 45 46 46 46 45 45 45 44 45 45 44 44 44 43 43 43 43 43 43 43 42 42 42 41 40 40 40 41 41 41 41 41 40 40
42 42 42 43 43 44 45 46 46 47 47 47 46 45 45 45 45 45 45 45 45 45 44 44 44 44 44 44 43 43 43 43 42 42 41 41 41 42 41 41 42 41 41
43 43 43 43 43 44 45 47 47 47 47 47 47 46 46 46 46 46 45 45 45 45 46 46 45 45 44 43 43 43 43 44 43 43 42 42 42 42 42 42 42 41 41
43 43 44 44 44 45 45 46 47 47 47 47 47 47 48 47 47 47 46 46 45 46 46 46 45 45 44 44 44 44 44 43 43 43 42 42 42 43 43 42 41 42 42
43 44 44 44 44 44 45 45 46 47 47 48 48 47 48 48 48 48 48 48 47 46 46 45 46 45 45 45 45 44 44 44 43 43 42 42 42 42 42 42 42 42 42
43 44 44 44 44 44 43 44 45 45 46 47 48 47 47 48 48 48 48 49 48 47 46 46 46 46 46 45 45 45 44 44 43 42 42 41 41 41 42 42 42 41 40
42 43 43 43 43 43 43 43 43 43 44 45 46 47 47 47 47 47 47 48 48 47 47 47 47 46 45 45 44 44 43 43 42 41 41 41 41 41 41 40 40 38 38
42 42 42 43 42 42 42 42 42 43 43 43 44 44 45 45 46 46 46 46 47 46 46 47 46 45 44 43 43 43 43 42 42 41 41 41 41 40 40 39 39 39 39
41 41 42 42 42 42 42 42 42 42 42 42 42 42 42 43 44 45 45 45 45 45 46 45 45 44 44 44 44 43 42 42 41 41 40 40 39 39 39 39 39 40 40
40 41 42 42 41 41 41 41 41 41 41 41 41 41 42 42 43 43 44 44 44 44 44 44 45 44 44 44 43 43 42 41 41 40 40 39 39 39 38 39 40 40 40
38 39 40 41 40 40 40 40 41 41 41 41 41 42 42 42 43 43 43 43 43 43 43 43 43 43 43 43 43 42 41 41 41 40 40 39 39 38 39 39 39 40 41
36 37 38 39 39 39 39 39 40 40 41 41 41 41 42 42 43 43 43 43 43 42 42 42 42 42 42 43 43 42 42 41 41 40 40 39 39 39 39 40 40 41 42
34 36 37 37 38 38 38 38 38 39 39 40 40 40 40 40 41 42 42 43 43 42 42 41 41 42 42 42 42 42 42 42 42 41 41 40 40 40 41 41 42 42 43
32 33 34 34 35 36 36 37 37 37 38 38 38 39 39 39 39 39 40 41 42 42 41 41 41 41 42 42 42 42 42 42 41 40 40 40 41 41 41 41 42 42 43
30 31 32 33 33 34 35 35 35 35 36 36 37 37 37 37 37 38 38 39 39 40 41 42 41 41 41 41 41 41 41 41 40 39 40 40 41 41 42 42 42 42 42
29 31 31 32 33 33 34 34 34 34 34 35 36 36 37 37 37 37 37 38 39 40 41 41 40 40 40 40 40 40 40 40 39 39 40 40 41 41 41 41 42 42 42
29 30 31 32 32 33 33 33 33 33 33 34 35 36 36 37 37 37 37 37 38 38 39 39 39 39 39 39 39 39 39 39 39 39 39 39 39 40 40 40 40 41 41
27 28 30 31 32 32 32 32 32 33 33 33 34 35 35 35 36 36 36 36 36 37 37 38 37 38 38 39 39 38 38 38 38 38 38 38 38 38 39 39 39 39 39
27 27 28 29 31 31 32 32 32 33 33 33 34 34 35 35 36 36 36 35 35 36 36 36 36 36 36 36 37 37 37 37 37 37 37 37 37 37 37 37 37 37 37
26 27 28 29 30 31 32 33 34 34 33 33 33 34 34 34 34 34 34 34 34 34 34 34 35 35 35 34 35 35 35 35 36 36 36 36 36 36 35 35 35 35 35
26 27 28 28 29 30 31 32 34 34 34 34 34 33 33 33 33 33 33 33 33 32 33 33 34 35 34 34 34 34 34 34 34 34 34 35 34 34 33 33 33 33 32
24 25 27 28 29 30 31 31 31 32 32 32 33 32 32 32 32 32 32 32 32 32 32 32 33 33 34 34 33 33 33 33 33 33 33 32 32 32 31 31 31 31 31
23 24 26 27 28 29 29 29 29 29 29 29 30 30 30 29 30 31 31 31 31 31 31 31 31 32 32 32 31 32 32 32 32 32 32 31 30 30 30 30 30 30 30
23 23 24 25 26 26 26 26 26 27 27 27 27 28 28 28 28 29 30 30 31 31 30 30 31 30 30 30 30 30 30 31 31 31 31 30 30 30 30 30 30 30 30
22 22 21 21 22 23 23 24 24 24 24 25 25 26 26 26 27 28 28 28 29 29 30 30 30 30 31 31 30 30 30 30 30 30 30 29 29 29 28 28 28 29 29
19 19 19 19 19 19 20 21 22 23 23 23 24 24 25 25 26 26 26 26 26 28 28 28 28 29 29 29 29 29 29 29 28 28 28 28 28 28 28 28 28 28 29

GEFSGL_500_meanwind_240.txt.gz
Wind_Speed
47 48 49 49 50 49 48 48 48 48 48 48 48 49 49 49 49 50 49 49 48 48 47 47 47 46 45 45 45 44 43 43 42 41 41 42 42 42 42 42 42 42 42
47 48 49 49 50 49 49 49 49 49 49 48 48 49 50 50 50 49 49 48 48 48 47 47 47 46 46 46 46 46 45 44 43 42 42 42 43 43 43 42 42 43 42
46 47 48 49 49 48 48 48 48 48 48 48 48 48 49 49 49 50 50 50 50 49 48 48 48 48 48 48 48 47 46 45 45 44 43 43 43 43 43 43 44 43 43
44 45 46 47 48 48 47 47 47 47 48 48 47 47 48 48 49 50 49 49 50 49 49 49 49 49 48 49 48 48 47 46 46 45 44 44 44 44 44 44 43 43 43
43 44 45 46 47 47 47 47 46 46 46 47 47 46 47 47 48 49 49 49 49 49 49 50 50 50 49 48 49 48 48 48 48 47 46 46 46 45 45 44 43 43 43
42 42 43 44 45 46 46 46 45 45 45 45 45 45 45 46 47 47 48 48 48 48 49 50 50 50 50 49 49 49 49 48 48 48 47 47 46 45 45 44 44 43 42
40 40 41 42 44 44 45 45 45 45 45 45 45 45 45 46 46 46 46 46 47 47 48 49 49 50 50 50 49 48 48 48 48 48 47 46 46 45 45 44 43 43 42
39 39 39 41 43 44 44 44 45 45 45 45 44 44 45 46 47 47 47 46 46 46 46 47 47 48 48 48 48 47 48 48 48 48 47 47 46 45 45 44 43 43 42
38 39 39 40 42 43 43 43 44 44 44 44 44 44 44 45 46 47 47 47 47 46 46 46 46 46 46 46 47 47 47 47 47 47 47 47 46 45 44 44 43 43 42
36 37 38 39 40 41 42 43 43 44 44 43 44 44 44 44 45 46 47 47 47 47 46 46 45 45 45 44 45 46 46 46 46 46 46 46 45 45 44 44 43 43 42
34 35 36 37 38 39 41 42 42 42 42 42 42 43 43 43 44 44 45 45 45 46 45 44 44 45 45 44 44 44 45 46 46 46 46 46 45 44 44 44 44 44 43
33 33 34 34 36 37 38 39 40 40 40 40 40 41 42 43 43 43 43 43 44 44 44 44 43 44 44 44 44 44 44 44 44 45 45 45 45 45 44 44 45 45 44
31 31 32 33 34 35 36 37 38 39 39 39 40 41 41 42 42 42 42 42 43 43 43 44 43 43 43 44 44 44 44 44 44 44 44 45 45 45 45 45 44 45 45
29 29 30 31 32 33 33 35 36 37 38 38 38 39 40 40 41 41 41 41 41 41 42 43 44 43 43 42 42 43 43 43 43 43 43 43 44 45 45 45 45 45 45
27 28 28 29 30 31 31 32 33 34 35 36 36 37 37 38 39 39 40 40 40 41 41 42 42 42 42 42 42 42 42 42 42 42 42 41 42 43 44 44 45 45 45
24 25 26 27 28 29 29 30 31 32 33 34 35 35 35 36 37 38 39 39 40 40 40 40 40 40 40 41 41 41 41 41 42 41 41 40 40 41 42 43 43 43 43
25 25 25 26 26 27 28 28 28 30 31 33 34 34 34 34 35 36 37 38 39 39 39 39 39 39 40 40 40 40 40 40 41 41 41 40 40 40 41 41 41 41 41
25 25 25 25 26 26 27 27 27 28 29 31 33 34 34 33 34 35 35 36 37 37 37 38 38 38 39 39 39 39 39 39 39 40 40 39 39 39 39 40 40 40 40
24 24 25 25 25 25 26 27 27 28 29 30 31 32 33 33 33 34 34 35 35 36 36 36 36 36 36 37 37 37 37 37 38 38 39 38 38 38 38 38 38 38 38
25 25 25 25 25 25 26 27 28 28 29 30 30 31 32 32 33 34 34 35 35 35 35 35 35 35 35 35 36 36 36 37 37 37 37 37 36 36 36 35 35 35 35
25 25 25 26 26 27 27 28 28 29 29 29 29 30 31 31 32 33 34 34 34 34 34 34 34 34 34 34 34 35 35 36 36 35 35 35 35 34 34 34 34 34 34
24 25 25 26 27 27 28 28 29 29 29 29 29 29 29 30 31 31 32 33 33 33 33 33 33 33 33 33 33 33 33 34 34 34 34 34 34 34 34 33 33 33 33
24 24 24 25 26 26 27 28 28 28 29 28 28 28 28 29 29 30 31 32 32 33 32 32 32 32 32 32 32 32 32 33 33 33 33 32 32 33 33 32 32 31 31
23 23 23 23 24 24 25 26 26 26 27 27 27 26 26 27 28 29 29 30 30 31 32 32 31 31 31 31 31 31 32 32 32 32 32 32 32 32 31 31 30 30 29
23 23 23 23 23 23 23 23 23 24 24 25 25 25 25 25 26 27 28 28 28 29 29 30 30 30 30 30 30 30 31 31 31 31 31 31 30 30 30 30 30 29 29
23 23 23 22 22 21 21 21 21 21 22 22 23 23 23 24 24 25 26 26 27 27 28 29 29 29 29 29 29 30 30 31 31 31 31 30 29 29 29 29 29 30 29